Regional Weather Roundup
Issued by NWS Little Rock, AR

Home | Current Version | Previous Version | Text Only | Print | Product List | Glossary Off
Versions: 1 2 3 4 5 6 7 8 9 10 11 12 13 14 15 16 17 18 19 20 21 22 23 24 25 26 27 28 29 30 31 32 33 34 35 36 37 38 39 40 41 42 43 44 45 46 47 48 49 50

000
ASUS44 KLZK 230905
RWRLZK

WEATHER ROUNDUP FOR ARKANSAS
NATIONAL WEATHER SERVICE LITTLE ROCK AR
300 AM CST THU FEB 23 2017

NOTE: "FAIR" INDICATES FEW OR NO CLOUDS BELOW 12,000 FEET WITH NO
SIGNIFICANT WEATHER AND/OR OBSTRUCTIONS TO VISIBILITY.

ARZ001-003-010-029-231000-
NORTHWEST ARKANSAS

CITY           SKY/WX    TMP DP  RH WIND       PRES   REMARKS
FAYETTEVILLE   CLOUDY    48  48 100 CALM      29.69F FOG
FORT SMITH     CLOUDY    55  53  93 NE7       29.70F
HARRISON       FOG       52  52 100 SE8       29.72S VSB 3/4
BENTONVILLE    PTCLDY    54  52  94 SE5       29.70F
ROGERS         PTCLDY    55  53  93 SE6       29.70F
SILOAM SPGS    PTCLDY    55  52  88 SE6       29.68F
HIGHFILL       PTCLDY    53  51  93 SE5       29.68F
$$

ARZ004-005-016-231000-
NORTH CENTRAL ARKANSAS

CITY           SKY/WX    TMP DP  RH WIND       PRES   REMARKS
BATESVILLE     CLOUDY    52  48  87 S3        29.78S VSB 1/2
FLIPPIN        CLOUDY    52  48  87 CALM      29.71F VSB 1/4
MTN HOME       CLEAR     52  52 100 S6        29.72F FOG
$$

ARZ040-041-231000-
WEST CENTRAL ARKANSAS

CITY           SKY/WX    TMP DP  RH WIND       PRES   REMARKS
MENA           CLOUDY    54  52  94 CALM      29.74F
MOUNT IDA      CLOUDY    51  50  96 CALM      29.72F FOG
$$

ARZ009-017-025-026-028-231000-
NORTHEAST ARKANSAS

CITY           SKY/WX    TMP DP  RH WIND       PRES   REMARKS
CORNING        FAIR      54  54 100 SE6       29.78S FOG
JONESBORO      FOG       50  50 100 CALM      29.77F VSB 1/4
NEWPORT        FOG       51  51 100 MISG      29.78F VSB 1/4
WALNUT RIDGE   CLOUDY    52  48  87 S6        29.76F VSB 1/2
BLYTHEVILLE    CLEAR     54  54 100 S5        29.79F
$$

ARZ022-023-033-042-044-231000-
CENTRAL ARKANSAS

CITY           SKY/WX    TMP DP  RH WIND       PRES   REMARKS
LITTLE ROCK    FOG       49  49 100 CALM      29.77F VSB 3/4
N LITTLE ROCK    N/A     55  54  95 S3        29.77F
JACKSONVILLE   FOG       46  46 100 CALM      29.76F VSB 1/2
SEARCY         FOG       49  49 100 CALM      29.79F VSB 1/2
HOT SPRINGS    MOCLDY    50  50 100 E3        29.76F
RUSSELLVILLE   CLOUDY    54  53  97 CALM      29.74F
$$

ARZ036-231000-
EAST ARKANSAS

CITY           SKY/WX    TMP DP  RH WIND       PRES   REMARKS
WEST MEMPHIS   CLEAR     54  54 100 SE3       29.78F FOG
$$

ARZ050-053-066-070-073-231000-
SOUTHWEST ARKANSAS

CITY           SKY/WX    TMP DP  RH WIND       PRES   REMARKS
ARKADELPHIA    FAIR      48  47  96 CALM      29.77F
CAMDEN         CLEAR     50  48  93 SE3       29.77F FOG
TEXARKANA      CLEAR     58  54  86 SE7       29.73F
EL DORADO      CLEAR     53  52  96 S5        29.77F
DE QUEEN       CLEAR     51  51 100 CALM      29.71F
$$

ARZ056-057-069-231000-
SOUTHEAST ARKANSAS

CITY           SKY/WX    TMP DP  RH WIND       PRES   REMARKS
PINE BLUFF     MOCLDY    49  49 100 CALM      29.77F FOG
STUTTGART      CLOUDY    54  46  76 SE7       29.78F VSB 1/2
MONTICELLO     CLEAR     54  52  93 CALM      29.78F

$$





USA.gov is the U.S. government's official web portal to all federal, state and local government web resources and services.